COSMOS 2491 DEB, 57568

Orbit data source: Space-Track

COSMOS 2491 DEB, 57568 is space debris in LEO originally from a launch on Wed, 25 Dec 2013 UTC launched from the Plesetsk Missile And Space Complex (PKMTR). Debris objects in space refer to the collection of defunct objects orbiting the Earth. Examples of debris include non-operational satellites, rocket bodies, and fragments generated from explosions, collisions, or faulty payload assembly.

Loading next visibility...
Identifier
57568, 2013-076BF
Orbit
LEO
Country
Flag of CISCIS
Related business
Manufacturer
TsNIIKhM
Mission
Spacecraft
Bus & Motor
Unknown
Mass
Unknown
Launch date (UTC)
2013-12-25 (12 years ago)
Launch vehicle
Unknown
Launch site
Plesetsk Missile And Space Complex (PKMTR)
Object type
Payload
Rocket body
Debris
Shape & HBR
Unknown shape, 0.1 m
Radar Cross Section
Small (<0.1 m²)

Expand to show TLE details & history
Last TLE update: 2 days ago

TLE from 2 days ago
0 COSMOS 2491 DEB
1 57568U 13076BF  26103.85754963  .00002608  00000-0  13648-1 0  9996
2 57568  82.4550 159.8063 0040636  88.6103 271.9645 12.66669897135142
Epoch: 2026-04-13T20:34Z
TLE epoch observation values (Epoch: 2026-04-13T20:34:52.288Z)
Latitude
0.00001°
Longitude
9.0463°
Altitude
1,397.313 km
Speed
7.162 km/s
True Right ascension
10h 39m 13s
True Declination
0° 00' 00"
Sunlit
Object was in full shadow at epoch
Visualization orbit readout
Latitude
Unknown
Longitude
Unknown
Altitude
Unknown
Speed
Unknown
Apparent Right ascension
Unknown
Apparent Declination
Unknown
Sunlit
N/A
Visualization observer readout
Local Sidereal Time
20:07:36
Azimuth
Unknown
Elevation
Unknown
Doppler factor
Unknown
Orbital elements
Apogee altitude
1,424.432 km
Perigee altitude
1,361.276 km
Semi-major axis
7,770.991 km
Eccentricity
0.00406
Inclination
82.455°
RAAN
159.8063°
Arg. of periapsis
88.6103°
True anomaly
271.49904°
Mean anomaly
271.9645°
Eccentric anomaly
271.73178°
Mean motion
3.16832 °/min
Orbital period
113.63 mins
BSTAR
0.013648
Loading maneuver chart data...
Computing Atmospheric mass density...
Loading historical data...
Loading historical data...
Loading historical data...
Loading historical data...
Loading historical data...
Loading historical data...
Loading historical data...

Documentation

Showing up to 5 results
|